Weather History for KCBF - March, 2012

Change the Weather History Date:

Sunday, March 18, 2012

  Actual Average Record
Temperature  
Mean Temperature 72 °F -  
Max Temperature 80 °F 47 °F 80 °F (2012)
Min Temperature 64 °F 29 °F 26 °F (2001)
Cooling Degree Days 7    
Growing Degree Days 22 (Base 50)    
Moisture  
Dew Point 59 °F    
Average Humidity 67    
Maximum Humidity 83    
Minimum Humidity 42    
Precipitation  
Precipitation 0.00 in - - ()
Sea Level Pressure  
Sea Level Pressure 29.72 in    
Wind  
Wind Speed 19 mph (South)    
Max Wind Speed 29 mph    
Max Gust Speed 38 mph    
Visibility 10 miles    
Events      
Averages and records for this station are not official NWS values.
T = Trace of Precipitation, MM = Missing Value Source: NWS Daily Summary

Daily Weather History Graph

Daily Weather History Graph

Search for Another Location

Airport or City:

Trip Planner

Search our weather history database for the weather conditions in past years. The results will help you decide how hot, cold, wet, or windy it might be!

Date:

Astronomy

Mar. 18, 2012 Rise Set
Actual Time 7:28 AM CDT 7:33 PM CDT
Civil Twilight 7:01 AM CDT 8:01 PM CDT
Nautical Twilight 6:29 AM CDT 8:33 PM CDT
Astronomical Twilight 5:56 AM CDT 9:06 PM CDT
Moon 5:10 AM CDT (3/18) 3:59 PM CDT (3/18)
Length of Visible Light 12h 59m
Length of Day
12h 04m
Waning Crescent, 15% of the Moon is Illuminated
Mar 18
Waning Crescent
Mar 22
New
Mar 30
First Quarter
Apr 6
Full
Apr 13
Last Quarter

Hourly Weather History & Observations

Time (CDT) Temp. Heat Index Dew Point Humidity Pressure Visibility Wind Dir Wind Speed Gust Speed Precip Events Conditions
12:15 AM 66.2 °F - 60.8 °F 83% 29.76 in 10.0 mi South 16.1 mph - N/A   Unknown
12:35 AM 66.2 °F - 60.8 °F 83% 29.76 in 10.0 mi South 18.4 mph 29.9 mph N/A   Unknown
12:55 AM 66.2 °F - 60.8 °F 83% 29.76 in 10.0 mi South 15.0 mph 26.5 mph N/A   Overcast
1:15 AM 66.2 °F - 59.0 °F 78% 29.76 in 10.0 mi South 18.4 mph 33.4 mph N/A   Overcast
1:35 AM 66.2 °F - 59.0 °F 78% 29.76 in 10.0 mi South 20.7 mph 28.8 mph N/A   Overcast
1:55 AM 68.0 °F - 59.0 °F 73% 29.76 in 10.0 mi South 19.6 mph 34.5 mph N/A   Overcast
2:15 AM 66.2 °F - 59.0 °F 78% 29.76 in 10.0 mi South 19.6 mph 33.4 mph N/A   Overcast
2:35 AM 68.0 °F - 59.0 °F 73% 29.76 in 10.0 mi South 20.7 mph 32.2 mph N/A   Overcast
2:55 AM 68.0 °F - 59.0 °F 73% 29.76 in 10.0 mi South 18.4 mph 28.8 mph N/A   Overcast
3:15 AM 68.0 °F - 59.0 °F 73% 29.75 in 10.0 mi South 19.6 mph 29.9 mph N/A   Overcast
3:35 AM 68.0 °F - 59.0 °F 73% 29.75 in 10.0 mi South 18.4 mph 26.5 mph N/A   Overcast
3:55 AM 66.2 °F - 59.0 °F 78% 29.74 in 10.0 mi SSW 17.3 mph 25.3 mph N/A   Overcast
4:15 AM 66.2 °F - 59.0 °F 78% 29.74 in 10.0 mi South 18.4 mph 26.5 mph N/A   Overcast
4:55 AM 66.2 °F - 59.0 °F 78% 29.74 in 10.0 mi South 12.7 mph 23.0 mph N/A   Overcast
5:15 AM 66.2 °F - 59.0 °F 78% 29.73 in 10.0 mi South 16.1 mph 25.3 mph N/A   Overcast
5:35 AM 66.2 °F - 59.0 °F 78% 29.73 in 10.0 mi South 16.1 mph 21.9 mph N/A   Overcast
5:55 AM 66.2 °F - 59.0 °F 78% 29.73 in 10.0 mi South 15.0 mph 24.2 mph N/A   Overcast
6:15 AM 66.2 °F - 59.0 °F 78% 29.73 in 10.0 mi South 16.1 mph 23.0 mph N/A   Overcast
6:35 AM 66.2 °F - 59.0 °F 78% 29.73 in 10.0 mi South 15.0 mph 23.0 mph N/A   Overcast
6:55 AM 64.4 °F - 59.0 °F 83% 29.73 in 10.0 mi South 16.1 mph - N/A   Overcast
7:15 AM 64.4 °F - 59.0 °F 83% 29.73 in 10.0 mi South 16.1 mph - N/A   Overcast
7:35 AM 64.4 °F - 59.0 °F 83% 29.73 in 10.0 mi South 16.1 mph - N/A   Overcast
7:55 AM 64.4 °F - 59.0 °F 83% 29.73 in 10.0 mi SSE 15.0 mph - N/A   Overcast
8:15 AM 64.4 °F - 59.0 °F 83% 29.73 in 10.0 mi South 17.3 mph - N/A   Overcast
8:35 AM 66.2 °F - 59.0 °F 78% 29.74 in 10.0 mi South 18.4 mph 26.5 mph N/A   Overcast
8:55 AM 66.2 °F - 59.0 °F 78% 29.74 in 10.0 mi South 18.4 mph 27.6 mph N/A   Overcast
9:15 AM 68.0 °F - 59.0 °F 73% 29.74 in 10.0 mi South 18.4 mph 27.6 mph N/A   Overcast
9:35 AM 68.0 °F - 59.0 °F 73% 29.75 in 10.0 mi South 16.1 mph 28.8 mph N/A   Overcast
9:55 AM 68.0 °F - 59.0 °F 73% 29.75 in 10.0 mi South 18.4 mph 26.5 mph N/A   Overcast
10:15 AM 68.0 °F - 59.0 °F 73% 29.75 in 10.0 mi South 15.0 mph 25.3 mph N/A   Overcast
10:35 AM 68.0 °F - 59.0 °F 73% 29.75 in 10.0 mi SSW 17.3 mph 26.5 mph N/A   Overcast
10:55 AM 69.8 °F - 59.0 °F 68% 29.75 in 10.0 mi South 23.0 mph 33.4 mph N/A   Overcast
11:15 AM 71.6 °F - 59.0 °F 64% 29.75 in 10.0 mi SSW 18.4 mph 27.6 mph N/A   Overcast
11:35 AM 71.6 °F - 57.2 °F 60% 29.74 in 10.0 mi South 24.2 mph 32.2 mph N/A   Mostly Cloudy
11:55 AM 73.4 °F - 57.2 °F 57% 29.73 in 10.0 mi South 23.0 mph 31.1 mph N/A   Scattered Clouds
12:15 PM 75.2 °F - 57.2 °F 53% 29.73 in 10.0 mi South 24.2 mph 33.4 mph N/A   Clear
12:35 PM 75.2 °F - 57.2 °F 53% 29.73 in 10.0 mi South 19.6 mph 28.8 mph N/A   Clear
12:55 PM 77.0 °F - 57.2 °F 50% 29.73 in 10.0 mi South 20.7 mph 31.1 mph N/A   Clear
1:15 PM 77.0 °F - 57.2 °F 50% 29.72 in 10.0 mi South 23.0 mph 33.4 mph N/A   Clear
1:35 PM 78.8 °F - 57.2 °F 47% 29.72 in 10.0 mi South 25.3 mph 35.7 mph N/A   Clear
1:55 PM 78.8 °F - 57.2 °F 47% 29.71 in 10.0 mi South 23.0 mph 32.2 mph N/A   Clear
2:15 PM 80.6 °F 80.8 °F 57.2 °F 45% 29.70 in 10.0 mi South 23.0 mph 35.7 mph N/A   Clear
2:35 PM 80.6 °F 80.8 °F 57.2 °F 45% 29.70 in 10.0 mi South 23.0 mph 36.8 mph N/A   Clear
2:55 PM 80.6 °F 80.8 °F 57.2 °F 45% 29.69 in 10.0 mi South 24.2 mph 31.1 mph N/A   Clear
3:15 PM 80.6 °F 80.5 °F 55.4 °F 42% 29.68 in 10.0 mi South 21.9 mph 32.2 mph N/A   Clear
3:55 PM 78.8 °F - 57.2 °F 47% 29.69 in 10.0 mi South 19.6 mph 32.2 mph N/A   Clear
4:15 PM 78.8 °F - 57.2 °F 47% 29.69 in 10.0 mi South 21.9 mph 32.2 mph N/A   Clear
4:35 PM 78.8 °F - 59.0 °F 51% 29.69 in 10.0 mi South 23.0 mph 34.5 mph N/A   Partly Cloudy
4:55 PM 78.8 °F - 57.2 °F 47% 29.68 in 10.0 mi South 26.5 mph 34.5 mph N/A   Scattered Clouds
5:15 PM 78.8 °F - 57.2 °F 47% 29.68 in 10.0 mi South 27.6 mph 36.8 mph N/A   Partly Cloudy
5:35 PM 77.0 °F - 57.2 °F 50% 29.68 in 10.0 mi South 28.8 mph 35.7 mph N/A   Mostly Cloudy
5:55 PM 77.0 °F - 59.0 °F 54% 29.68 in 10.0 mi South 23.0 mph 36.8 mph N/A   Scattered Clouds
6:15 PM 75.2 °F - 57.2 °F 53% 29.68 in 10.0 mi South 21.9 mph 35.7 mph N/A   Clear
6:55 PM 73.4 °F - 59.0 °F 61% 29.68 in 9.0 mi South 24.2 mph 36.8 mph N/A   Partly Cloudy
7:15 PM 71.6 °F - 59.0 °F 64% 29.69 in 10.0 mi South 27.6 mph 38.0 mph N/A   Mostly Cloudy
7:35 PM 71.6 °F - 59.0 °F 64% 29.70 in 8.0 mi South 27.6 mph 35.7 mph N/A   Overcast
7:55 PM 69.8 °F - 59.0 °F 68% 29.70 in 9.0 mi South 23.0 mph 28.8 mph N/A   Mostly Cloudy
8:15 PM 69.8 °F - 59.0 °F 68% 29.70 in 10.0 mi South 21.9 mph 27.6 mph N/A   Mostly Cloudy
8:35 PM 68.0 °F - 59.0 °F 73% 29.71 in 10.0 mi SSE 24.2 mph 29.9 mph N/A   Mostly Cloudy
8:55 PM 68.0 °F - 59.0 °F 73% 29.71 in 10.0 mi South 17.3 mph 27.6 mph N/A   Unknown
9:15 PM 66.2 °F - 59.0 °F 78% 29.71 in 10.0 mi South 18.4 mph 24.2 mph N/A   Scattered Clouds
9:35 PM 66.2 °F - 59.0 °F 78% 29.70 in 10.0 mi SSE 20.7 mph - N/A   Partly Cloudy
9:55 PM 66.2 °F - 59.0 °F 78% 29.71 in 10.0 mi SSE 18.4 mph 24.2 mph N/A   Unknown
10:15 PM 66.2 °F - 59.0 °F 78% 29.71 in 10.0 mi South 19.6 mph 25.3 mph N/A   Unknown
10:35 PM 66.2 °F - 59.0 °F 78% 29.71 in 10.0 mi South 16.1 mph - N/A   Clear
10:55 PM 66.2 °F - 59.0 °F 78% 29.70 in 10.0 mi SSE 19.6 mph - N/A   Clear
11:15 PM 66.2 °F - 59.0 °F 78% 29.71 in 10.0 mi South 20.7 mph 27.6 mph N/A   Clear
11:35 PM 66.2 °F - 59.0 °F 78% 29.70 in 10.0 mi South 17.3 mph 25.3 mph N/A   Partly Cloudy